Simultaneous Nadir Overpasses (SNOs) Predictions

Prediction of SNOs between NOAA-20 and NOAA-19 Satellite Orbit:

Table of predicted SNOs for the next 14.0 days since TLE Epoch: 10/19/2018
Index Date (NOAA-20) Time (NOAA-20) Lat,Lon (NOAA-20) SZA (NOAA-20 ) Date (NOAA-19) Time (NOAA-19) Lat,Lon (NOAA-19) SZA (NOAA-19 ) Distance(km) Time Diff (sec)
1 10/20/2018 17:35:41 -80.38, 52.85 87.02 10/20/2018 17:34:27 -80.39, 52.93 86.98 2.44 74
2 10/20/2018 18:26:27 80.40,-140.08 93.04 10/20/2018 18:25:23 80.38,-139.99 93.05 2.05 64
3 10/20/2018 19:17:11 -80.38, 27.44 86.99 10/20/2018 19:16:28 -80.40, 27.44 86.96 1.74 43
4 10/20/2018 20:07:57 80.40,-165.48 93.07 10/20/2018 20:07:24 80.39,-165.48 93.07 1.46 33
5 10/20/2018 20:58:41 -80.38, 2.04 86.96 10/20/2018 20:58:29 -80.40, 1.94 86.94 2.29 12
6 10/20/2018 21:49:27 80.40, 169.11 93.10 10/20/2018 21:49:25 80.39, 169.03 93.09 2.19 2
7 10/20/2018 22:40:12 -80.41, -23.69 86.88 10/20/2018 22:40:30 -80.40, -23.55 86.91 3.06 18
8 10/20/2018 23:30:57 80.40, 143.70 93.13 10/20/2018 23:31:25 80.40, 143.88 93.10 3.32 28
9 10/21/2018 00:21:42 -80.41, -49.10 86.85 10/21/2018 00:22:31 -80.40, -49.04 86.89 2.02 49
10 10/21/2018 01:12:27 80.41, 118.29 93.16 10/21/2018 01:13:26 80.41, 118.39 93.12 1.79 59




NCC Satellite Simultaneous Nadir Overpasses (SNOs) Prediction Service
